Retour au catalogue

STARLINK-4762

ActifCommunicationsVLEO
NORAD 53866·PAYLOAD·🇺🇸 United States

Lancé Sep 19, 2022 depuis Cape Canaveral Space Force Station

Loading…

Prochains Passages (prochaines 24 heures)

TLE

FraisSource: CelesTrak SupGP

Époque: Sep 14, 2026, 22:04 UTC

1 53866C 22114BA  26257.91993056 -.00006977  00000+0 -20616-3 0  2577
2 53866  53.1566 119.7789 0001449  83.9360 233.0719 15.34388883    12

Suivez STARLINK-4762 en temps réel avec AllMySat

Download on the App Store